Location: Fontevrault
(47.1823°N, 0.0493°E)
Time: 10:16:22
(UTC+00:00)

Cosmos 1025 Rocket - Pass Details

Date: 16 June 2021
Orbit: 593 x 619 km, 82.5° (Epoch: 28 July)

Event Time Altitude Azimuth Distance (km) Brightness Sun altitude
Exits shadow 21:09:59 12° 154° (SSE) 1,834 4.8 -9.7°
Maximum altitude 21:13:34 35° 91° (E) 1,003 3.8 -10.0°
Drops below altitude 10° 21:17:33 10° 26° (NNE) 1,983 6.0 -10.4°
Sets 21:19:55 0° 18° (NNE) 2,889 7.0 -10.7°
